Location: Mary A Oil Field
(38.5606°N, 98.9545°W)
Time: 13:57:08
(UTC+00:00)

Cosmos 1602 Rocket - Pass Details

Date: 20 January 2020
Orbit: 603 x 634 km, 82.5° (Epoch: 16 February)

Event Time Altitude Azimuth Distance (km) Brightness Sun altitude
Rises 00:32:44 0° 188° (S) 2,893 7.4 -9.9°
Reaches altitude 10° 00:34:58 10° 189° (S) 1,986 6.5 -10.3°
Maximum altitude 00:39:22 83° 275° (W) 629 3.6 -11.1°
Drops below altitude 10° 00:43:46 10° 6° (N) 1,982 5.9 -11.9°
Sets 00:46:00 0° 7° (N) 2,886 6.8 -12.4°
